Regional Weather Roundup
Issued by NWS Sterling, VA

Home | Current Version | Previous Version | Graphics & Text | Print | Product List | Glossary On
Versions: 1 2 3 4 5 6 7 8 9 10 11 12 13 14 15 16 17 18 19 20 21 22 23 24 25 26 27 28 29 30 31 32 33 34 35 36 37 38 39 40 41 42 43 44 45 46 47 48 49 50
000
ASUS41 KLWX 260610
RWRLWX

REGIONAL WEATHER ROUNDUP
NATIONAL WEATHER SERVICE BALTIMORE MD/WASHINGTON DC
200 AM EDT SUN MAR 26 2017

Note: "FAIR" indicates few or no clouds below 12,000 feet
with no significant weather and/or obstructions to visibility.
 TC=TEMPERATURE CELSIUS

 * =Non NWS site. Station does not report precipitation (e.g. rain,
    snow, etc.), thunder, or fog.

DCZ001-MDZ009-015-VAZ040>042-051-053>054-260700-
WASHINGTON METRO

CITY           SKY/WX    TMP DP  RH WIND       PRES   REMARKS
WASHINGTON NAT CLOUDY    55  46  71 E15       30.25R
DULLES         CLOUDY    57  46  66 E14       30.20R
ANDREWS AFB    CLOUDY    51  43  74 NE16      30.24R
FT BELVOIR     CLOUDY    56  45  66 VRB6      30.22R
QUANTICO       CLOUDY    60  51  72 NE17      30.21R
COLLEGE PARK*  MOCLDY    52  43  71 E5        30.26R
LEESBURG*      CLOUDY    57  50  77 E15G21    30.23R
MANASSAS*        N/A     62  49  62 E14       30.20R

$$

MDZ006>007-011-014-260700-
BALTIMORE METRO

CITY           SKY/WX    TMP DP  RH WIND       PRES   REMARKS
BWI AIRPORT    MOCLDY    48  43  82 NE14      30.28R
MD SCIENCE CTR   N/A     50  40  68 MISG      30.29R
MARTIN STATE   CLOUDY    48  45  87 NE6       30.31R
ANNAPOLIS      CLOUDY    51  43  74 E9G18     30.28R
FORT MEADE*    PTCLDY    48  41  76 E8G16     30.30R

$$

MDZ012-015-019>023-260700-
MARYLAND EASTERN SHORE

CITY           SKY/WX    TMP DP  RH WIND       PRES   REMARKS
OCEAN CITY     CLOUDY    45  43  93 NE14G20   30.28R FOG
SALISBURY      CLOUDY    47  45  93 NE15      30.27R
BAY BRIDGE AP* CLOUDY    48  41  76 E10       30.28R
CAMBRIDGE*     CLOUDY    48  43  81 E9        30.26S
EASTON*        CLOUDY    49  41  74 E12G20    30.30S

$$

MDZ017>025-260700-
SOUTHERN MARYLAND

CITY           SKY/WX    TMP DP  RH WIND       PRES   REMARKS
PATUXENT RIVER CLOUDY    50  49  96 NE6       30.24R
ST INIGOES     CLOUDY    52  47  83 NE14      30.22R
LEONARDTOWN*   CLOUDY    52  45  76 NE3       30.25R

$$

MDZ003>005-260700-
NORTH CENTRAL MARYLAND

CITY           SKY/WX    TMP DP  RH WIND       PRES   REMARKS
FREDERICK*     CLOUDY    54  48  82 E13       30.28R
HAGERSTOWN APT PTCLDY    54  48  80 E14       30.21S
WESTMINSTER*   CLOUDY    50  45  81 E7G22     30.26R

$$

MDZ501>502-260700-
WESTERN MARYLAND

CITY           SKY/WX    TMP DP  RH WIND       PRES   REMARKS
OAKLAND*       CLEAR     54  46  76 SE12G17   30.17F
CUMBERLAND*    PTCLDY    61  46  59 NE6       30.22R

$$

VAZ025>031-260700-
SHENANDOAH VALLEY

CITY           SKY/WX    TMP DP  RH WIND       PRES   REMARKS
WINCHESTER*    CLOUDY    55  46  71 N6        30.17S
FRONT ROYAL*   CLOUDY    59  52  77 CALM      30.15S
LURAY*         MOCLDY    54  52  94 CALM      30.16S
NEW MARKET*    PTCLDY    50  47  90 CALM      30.16S
STAUNTON*      CLEAR     51  47  87 CALM      30.19S
WAYNESBORO*    PTCLDY    56  49  79 CALM      30.18S

$$

WVZ021-048>050-054>055-260700-
EASTERN WEST VIRGINIA PANHANDLE

CITY           SKY/WX    TMP DP  RH WIND       PRES   REMARKS
MARTINSBURG    MOCLDY    55  46  71 N8        30.19R
PETERSBURG*    MOCLDY    53  50  91 CALM      30.16R

$$

VAZ036>039-050-260700-
CENTRAL FOOTHILLS

CITY           SKY/WX    TMP DP  RH WIND       PRES   REMARKS
CHARLOTTESVILL MOCLDY    61  50  67 S7        30.16S
CULPEPER*      MOCLDY    58  51  78 CALM      30.18S
ORANGE*        PTCLDY    54  46  76 CALM      30.19S
GORDONSVILLE*  PTCLDY    54  49  85 CALM      30.17S
WARRENTON*     PTCLDY    65  47  52 S5        30.17S

$$

VAZ055>057-260700-
NORTH AND CENTRAL PIEDMONT

CITY           SKY/WX    TMP DP  RH WIND       PRES   REMARKS
FREDERICKSBRG* CLOUDY    60  52  74 SE6       30.17F
STAFFORD*      CLOUDY    62  53  72 E3        30.22S

$$

NCZ024-NYZ072-PAZ021-071-VAZ022-071-260700-
OTHER REGIONAL OBSERVATIONS

CITY           SKY/WX    TMP DP  RH WIND       PRES   REMARKS
NEW YORK CITY  CLOUDY    42  33  70 E9G20     30.42S
PHILADELPHIA   CLOUDY    45  38  76 E15G22    30.35S
PITTSBURGH     MOCLDY    61  52  72 E7        30.11S
ROANOKE        CLEAR     60  47  61 CALM      30.18F
RICHMOND       MOCLDY    60  52  74 S9        30.20S
RALEIGH        MOCLDY    61  51  70 SW7       30.21F

$$

ANZ530>537-260700-
MARINE OBSERVATIONS

STATION/POSITION TIME  TEMP    WIND        PRES
                       AIR SEA DIR/SP/G
                 (UTC) (F)     (DEG/KT/KT) (MB)
THOMAS PT LIGHT  0600   49 45   80/ 12/ 15   N/A
BALT KEY BRIDGE  0548           60/ 12/ 14 1025.5R
COVE POINT       0548           60/ 12/ 12 1024.8R
LEWISETTA        0548      49   60/  7/ 12 1022.7R
SOLOMONS ISLAND  0548      47   30/  6/  7   N/A
PINEY POINT      0542           80/ 12/ 14   N/A

$$




USA.gov is the U.S. government's official web portal to all federal, state and local government web resources and services.